TimePST,TemperatureF,Dew PointF,Humidity,Sea Level PressureIn,VisibilityMPH,Wind Direction,Wind SpeedMPH,Gust SpeedMPH,PrecipitationIn,Events,Conditions,WindDirDegrees,DateUTC
12:53 AM,17.1,12.0,81,30.17,10.0,Calm,Calm,-,N/A,,Overcast,0,2012-12-28 08:53:00
1:53 AM,14.0,10.0,84,30.20,10.0,East,4.6,-,N/A,,Overcast,90,2012-12-28 09:53:00
2:53 AM,8.6,6.8,92,30.08,10.0,SSE,5.8,-,N/A,,Mostly Cloudy,150,2012-12-28 10:53:00
3:01 AM,8.6,6.8,92,30.09,10.0,SSE,9.2,-,N/A,,Scattered Clouds,160,2012-12-28 11:01:00
3:53 AM,3.0,-0.0,87,30.25,10.0,South,9.2,-,N/A,,Partly Cloudy,180,2012-12-28 11:53:00
4:49 AM,1.4,-0.4,92,30.08,10.0,Variable,3.5,-,N/A,,Mostly Cloudy,0,2012-12-28 12:49:00
4:53 AM,1.9,-2.0,83,30.29,10.0,SSW,4.6,-,N/A,,Scattered Clouds,200,2012-12-28 12:53:00
5:07 AM,1.4,-2.2,85,30.10,10.0,Calm,Calm,-,N/A,,Mostly Cloudy,0,2012-12-28 13:07:00
5:53 AM,1.9,-2.0,83,30.31,10.0,South,6.9,-,N/A,,Overcast,180,2012-12-28 13:53:00
6:15 AM,1.4,-0.4,92,30.11,10.0,South,11.5,-,N/A,,Scattered Clouds,180,2012-12-28 14:15:00
6:53 AM,-0.0,-4.0,83,30.32,10.0,South,9.2,-,N/A,,Partly Cloudy,170,2012-12-28 14:53:00
7:44 AM,3.2,-0.4,85,30.12,10.0,South,10.4,-,N/A,,Mostly Cloudy,190,2012-12-28 15:44:00
7:53 AM,6.8,1.4,79,30.13,10.0,South,9.2,-,N/A,,Mostly Cloudy,180,2012-12-28 15:53:00
8:53 AM,8.6,5.0,85,30.13,10.0,South,5.8,-,N/A,,Overcast,190,2012-12-28 16:53:00
9:53 AM,10.4,6.8,85,30.15,10.0,South,9.2,-,N/A,,Mostly Cloudy,190,2012-12-28 17:53:00
10:01 AM,12.2,6.8,79,30.15,10.0,South,8.1,-,N/A,,Scattered Clouds,180,2012-12-28 18:01:00
10:53 AM,15.1,10.0,80,30.29,10.0,South,4.6,-,N/A,,Clear,190,2012-12-28 18:53:00
11:53 AM,18.0,10.9,74,30.24,10.0,SSE,3.5,-,N/A,,Clear,150,2012-12-28 19:53:00
12:53 PM,21.9,10.9,63,30.20,10.0,Calm,Calm,-,N/A,,Clear,0,2012-12-28 20:53:00
1:53 PM,21.0,10.9,65,30.22,10.0,ENE,3.5,-,N/A,,Clear,60,2012-12-28 21:53:00
2:53 PM,19.9,10.9,68,30.25,10.0,NNW,3.5,-,N/A,,Clear,340,2012-12-28 22:53:00
3:53 PM,16.0,8.1,71,30.31,10.0,Calm,Calm,-,N/A,,Clear,0,2012-12-28 23:53:00
4:53 PM,5.0,1.9,87,30.36,10.0,SE,4.6,-,N/A,,Clear,130,2012-12-29 00:53:00
5:53 PM,1.9,-0.9,88,30.39,10.0,South,5.8,-,N/A,,Clear,170,2012-12-29 01:53:00
6:53 PM,5.0,1.0,84,30.39,10.0,South,10.4,-,N/A,,Clear,170,2012-12-29 02:53:00
7:53 PM,-0.9,-4.0,87,30.39,10.0,SSW,10.4,-,N/A,,Clear,210,2012-12-29 03:53:00
8:53 PM,3.2,-0.4,85,30.11,10.0,South,12.7,-,N/A,,Clear,190,2012-12-29 04:53:00
9:53 PM,1.9,-0.9,88,30.35,10.0,South,4.6,-,N/A,,Clear,170,2012-12-29 05:53:00
10:53 PM,5.0,1.0,84,30.32,10.0,SSW,8.1,-,N/A,,Clear,210,2012-12-29 06:53:00
11:53 PM,7.0,1.9,80,30.27,10.0,South,9.2,-,N/A,,Clear,190,2012-12-29 07:53:00